Bigfork, MN

12:34 PM CST on February 13, 2016 (GMT -0600)
Bigfork Municipal

Weather History for KFOZ - July, 2013

Change the Weather History Date:

Thursday, July 25, 2013

  Actual Average (KGPZ) Record (KGPZ)
Temperature  
Mean Temperature 60 °F -  
Max Temperature 75 °F 80 °F 96 °F (1930)
Min Temperature 46 °F 54 °F 38 °F (1915)
Degree Days  
Heating Degree Days 4    
Growing Degree Days 10 (Base 50)    
Moisture  
Dew Point 54 °F    
Average Humidity 86    
Maximum Humidity 100    
Minimum Humidity 53    
Precipitation  
Precipitation 0.00 in - - ()
Sea Level Pressure  
Sea Level Pressure 29.91 in    
Wind  
Wind Speed 1 mph (SW)    
Max Wind Speed 14 mph    
Max Gust Speed 18 mph    
Visibility 6 miles    
Events Fog , Rain , Thunderstorm    
Averages and records for this station are not official NWS values.
T = Trace of Precipitation, MM = Missing Value Source: NWS Daily Summary

Daily Weather History Graph

Daily Weather History Graph

Search for Another Location

Airport or City:

Trip Planner

Search our weather history database for the weather conditions in past years. The results will help you decide how hot, cold, wet, or windy it might be!

Date:

Astronomy

Jul. 25, 2013 Rise Set
Actual Time 5:43 AM CDT 8:58 PM CDT
Civil Twilight 5:05 AM CDT 9:35 PM CDT
Nautical Twilight 4:16 AM CDT 10:24 PM CDT
Astronomical Twilight 3:14 AM CDT 11:25 PM CDT
Moon 10:16 PM CDT (7/25) 9:33 AM CDT (7/25)
Length of Visible Light 16h 29m
Length of Day
15h 15m
Waning Gibbous, 88% of the Moon is Illuminated
Jul 25
Waning Gibbous
Jul 29
Last Quarter
Aug 6
New
Aug 14
First Quarter
Aug 20
Full

Hourly Weather History & Observations

Time (CDT) Temp. Dew Point Humidity Pressure Visibility Wind Dir Wind Speed Gust Speed Precip Events Conditions
12:13 AM 53.6 °F 53.6 °F 100% 29.92 in 10.0 mi Calm Calm - N/A   Clear
12:33 AM 53.6 °F 51.8 °F 94% 29.92 in 7.0 mi Calm Calm - N/A   Clear
12:53 AM 53.6 °F 51.8 °F 94% 29.92 in 7.0 mi Calm Calm - N/A   Clear
1:13 AM 51.8 °F 51.8 °F 100% 29.92 in 7.0 mi Calm Calm - N/A   Clear
1:33 AM 51.8 °F 50.0 °F 94% 29.92 in 4.0 mi Calm Calm - N/A   Clear
1:53 AM 51.8 °F 50.0 °F 94% 29.93 in 1.2 mi Calm Calm - N/A   Mostly Cloudy
2:13 AM 51.8 °F 50.0 °F 94% 29.93 in 4.0 mi Calm Calm - N/A   Scattered Clouds
2:33 AM 51.8 °F 48.2 °F 88% 29.93 in 5.0 mi Calm Calm - N/A   Mostly Cloudy
2:53 AM 51.8 °F 48.2 °F 88% 29.92 in 1.2 mi Calm Calm - N/A   Overcast
3:13 AM 51.8 °F 50.0 °F 94% 29.91 in 0.2 mi Calm Calm - N/A Fog Fog
3:33 AM 50.0 °F 48.2 °F 94% 29.91 in 0.2 mi Calm Calm - N/A Fog Fog
3:53 AM 50.0 °F 48.2 °F 94% 29.91 in 0.8 mi Calm Calm - N/A   Mostly Cloudy
4:13 AM 48.2 °F 46.4 °F 93% 29.91 in 1.0 mi Calm Calm - N/A   Mostly Cloudy
4:33 AM 48.2 °F 46.4 °F 93% 29.91 in 0.5 mi Calm Calm - N/A Fog Fog
4:53 AM 48.2 °F 46.4 °F 93% 29.91 in 0.2 mi Calm Calm - N/A Fog Fog
5:13 AM 48.2 °F 46.4 °F 93% 29.91 in 0.2 mi Calm Calm - N/A Fog Fog
5:33 AM 48.2 °F 46.4 °F 93% 29.92 in 0.2 mi Calm Calm - N/A Fog Fog
5:53 AM 48.2 °F 46.4 °F 93% 29.91 in 0.2 mi Calm Calm - N/A Fog Fog
6:13 AM 46.4 °F 46.4 °F 100% 29.91 in 0.2 mi Calm Calm - N/A Fog Fog
6:33 AM 48.2 °F 46.4 °F 93% 29.92 in 0.2 mi Calm Calm - N/A Fog Fog
6:53 AM 51.8 °F 50.0 °F 94% 29.92 in 0.2 mi Calm Calm - N/A Fog Fog
7:14 AM 53.6 °F 51.8 °F 94% 29.92 in 0.2 mi Calm Calm - N/A Fog Fog
7:33 AM 55.4 °F 53.6 °F 94% 29.92 in 0.2 mi Calm Calm - N/A Fog Fog
7:53 AM 57.2 °F 55.4 °F 94% 29.93 in 0.2 mi Calm Calm - N/A Fog Fog
8:13 AM 57.2 °F 55.4 °F 94% 29.94 in 0.2 mi Calm Calm - N/A Fog Fog
8:33 AM 57.2 °F 57.2 °F 100% 29.94 in 0.2 mi WSW 3.5 mph - N/A Fog Fog
8:53 AM 59.0 °F 57.2 °F 94% 29.94 in 0.2 mi Calm Calm - N/A Fog Fog
9:13 AM 60.8 °F 57.2 °F 88% 29.94 in 0.2 mi Calm Calm - N/A Fog Fog
9:33 AM 60.8 °F 59.0 °F 94% 29.94 in 2.5 mi Calm Calm - N/A   Overcast
9:54 AM 60.8 °F 60.8 °F 100% 29.94 in 10.0 mi Calm Calm - N/A   Overcast
10:13 AM 62.6 °F 60.8 °F 94% 29.94 in 10.0 mi SSW 3.5 mph - N/A   Overcast
10:33 AM 62.6 °F 60.8 °F 94% 29.93 in 10.0 mi Calm Calm - N/A   Mostly Cloudy
10:53 AM 66.2 °F 60.8 °F 83% 29.93 in 10.0 mi Calm Calm - N/A   Scattered Clouds
11:13 AM 69.8 °F 59.0 °F 68% 29.93 in 10.0 mi WSW 3.5 mph - N/A   Clear
11:33 AM 71.6 °F 57.2 °F 60% 29.93 in 10.0 mi West 4.6 mph - N/A   Clear
11:53 AM 71.6 °F 57.2 °F 60% 29.93 in 10.0 mi SW 6.9 mph - N/A   Clear
12:13 PM 71.6 °F 57.2 °F 60% 29.93 in 10.0 mi WSW 4.6 mph - N/A   Scattered Clouds
12:33 PM 71.6 °F 57.2 °F 60% 29.92 in 10.0 mi SW 6.9 mph - N/A   Scattered Clouds
12:53 PM 73.4 °F 57.2 °F 57% 29.92 in 10.0 mi SW 4.6 mph - N/A   Scattered Clouds
1:13 PM 71.6 °F 57.2 °F 60% 29.90 in 10.0 mi SSW 8.1 mph - N/A   Scattered Clouds
1:33 PM 75.2 °F 57.2 °F 53% 29.89 in 10.0 mi SSW 9.2 mph - N/A   Scattered Clouds
1:53 PM 73.4 °F 59.0 °F 61% 29.89 in 10.0 mi SSW 6.9 mph - N/A   Scattered Clouds
2:13 PM 71.6 °F 57.2 °F 60% 29.89 in 10.0 mi SW 13.8 mph - N/A   Scattered Clouds
2:33 PM 71.6 °F 57.2 °F 60% 29.91 in 10.0 mi West 4.6 mph - N/A Thunderstorm Scattered Clouds
2:53 PM 60.8 °F 55.4 °F 82% 29.92 in 0.5 mi NNE 8.1 mph - N/A Rain , Thunderstorm Heavy Thunderstorms and Rain
3:13 PM 60.8 °F 57.2 °F 88% 29.92 in 10.0 mi Calm Calm - N/A Rain , Thunderstorm Light Thunderstorms and Rain
3:33 PM 60.8 °F 57.2 °F 88% 29.91 in 10.0 mi Calm Calm - N/A Rain Light Rain
3:53 PM 62.6 °F 57.2 °F 82% 29.91 in 10.0 mi Calm Calm - N/A   Clear
4:13 PM 62.6 °F 59.0 °F 88% 29.89 in 10.0 mi Calm Calm - N/A   Clear
4:33 PM 62.6 °F 59.0 °F 88% 29.89 in 10.0 mi Calm Calm - N/A Rain Light Rain
4:53 PM 66.2 °F 57.2 °F 73% 29.88 in 10.0 mi Calm Calm - N/A   Clear
5:13 PM 66.2 °F 57.2 °F 73% 29.87 in 10.0 mi ESE 4.6 mph - N/A   Clear
5:33 PM 69.8 °F 60.8 °F 73% 29.87 in 10.0 mi South 5.8 mph - N/A   Clear
5:53 PM 69.8 °F 60.8 °F 73% 29.87 in 10.0 mi Calm Calm - N/A Thunderstorm Clear
6:13 PM 62.6 °F 55.4 °F 77% 29.89 in 10.0 mi North 6.9 mph 18.4 mph N/A   Mostly Cloudy
6:33 PM 60.8 °F 53.6 °F 77% 29.88 in 10.0 mi ENE 4.6 mph - N/A   Scattered Clouds
6:53 PM 60.8 °F 55.4 °F 82% 29.88 in 10.0 mi NE 3.5 mph - N/A Rain Light Rain
7:13 PM 60.8 °F 55.4 °F 82% 29.88 in 10.0 mi Calm Calm - N/A   Scattered Clouds
7:33 PM 59.0 °F 55.4 °F 88% 29.88 in 10.0 mi NNE 4.6 mph - N/A Rain Light Rain
7:53 PM 59.0 °F 55.4 °F 88% 29.88 in 10.0 mi Calm Calm - N/A   Scattered Clouds
8:13 PM 59.0 °F 55.4 °F 88% 29.89 in 7.0 mi Calm Calm - N/A Rain Light Rain
8:33 PM 59.0 °F 55.4 °F 88% 29.89 in 10.0 mi Calm Calm - N/A   Mostly Cloudy
8:53 PM 57.2 °F 55.4 °F 94% 29.89 in 10.0 mi Calm Calm - N/A   Mostly Cloudy
9:13 PM 57.2 °F 55.4 °F 94% 29.89 in 10.0 mi Calm Calm - N/A   Scattered Clouds
9:33 PM 55.4 °F 53.6 °F 94% 29.89 in 5.0 mi Calm Calm - N/A   Scattered Clouds
9:53 PM 55.4 °F 53.6 °F 94% 29.89 in 0.5 mi Calm Calm - N/A Fog Fog
10:13 PM 53.6 °F 51.8 °F 94% 29.89 in 0.2 mi Calm Calm - N/A Fog Fog
10:33 PM 51.8 °F 50.0 °F 94% 29.89 in 0.5 mi Calm Calm - N/A Fog Fog
10:53 PM 53.6 °F 51.8 °F 94% 29.90 in 0.8 mi Calm Calm - N/A   Mostly Cloudy
11:13 PM 51.8 °F 51.8 °F 100% 29.89 in 0.8 mi Calm Calm - N/A   Mostly Cloudy
11:33 PM 50.0 °F 48.2 °F 94% 29.89 in 0.8 mi Calm Calm - N/A   Mostly Cloudy
11:53 PM 50.0 °F 48.2 °F 94% 29.89 in 0.8 mi Calm Calm - N/A   Mostly Cloudy